This is the latest recevied weather packets stored in our database for station/object KC5CAM-13. If no packets are shown the sender has not sent any weather packets the latest 1 day(s).
| Time | Temp. | Humidity | Pressure | Rain* | Wind** | Luminosity | Snow |
|---|---|---|---|---|---|---|---|
| 1778041007 | 16.11° C | 80% | 1010.9 hPa | 0 mm | 0.45 m/s, 327° | 0 W/m² | - |
| 1778040703 | 16.11° C | 81% | 1011.1 hPa | 0 mm | 1.34 m/s, 330° | 0 W/m² | - |
| 1778040401 | 16.11° C | 80% | 1011 hPa | 0 mm | 0.45 m/s, 293° | 0 W/m² | - |
| 1778040098 | 16.11° C | 80% | 1011 hPa | 0 mm | 0.45 m/s, 317° | 0 W/m² | - |
| 1778039795 | 16.11° C | 80% | 1010.7 hPa | 0 mm | 0.45 m/s, 323° | 0 W/m² | - |
| 1778039491 | 16.67° C | 80% | 1010.6 hPa | 0 mm | 2.24 m/s, 336° | 0 W/m² | - |
| 1778039189 | 16.67° C | 80% | 1010.4 hPa | 0 mm | 0.45 m/s, 358° | 0 W/m² | - |
| 1778038885 | 16.67° C | 80% | 1010.5 hPa | 0 mm | 1.34 m/s, 330° | 0 W/m² | - |
| 1778038583 | 16.67° C | 80% | 1010.5 hPa | 0 mm | 1.34 m/s, 14° | 0 W/m² | - |
| 1778038280 | 16.67° C | 80% | 1010.2 hPa | 0 mm | 0.89 m/s, 353° | 0 W/m² | - |
| 1778037977 | 16.67° C | 80% | 1010.4 hPa | 0 mm | 0 m/s | 0 W/m² | - |
| 1778037674 | 17.22° C | 80% | 1010.2 hPa | 0 mm | 0.45 m/s, 302° | 0 W/m² | - |
| 1778037371 | 17.22° C | 80% | 1010.3 hPa | 0 mm | 0.89 m/s, 305° | 0 W/m² | - |
| 1778037068 | 17.22° C | 80% | 1010 hPa | 0 mm | 0.45 m/s, 282° | 0 W/m² | - |
| 1778036766 | 17.22° C | 79% | 1010.1 hPa | 0 mm | 0.89 m/s, 4° | 0 W/m² | - |
| 1778036463 | 17.78° C | 79% | 1010.1 hPa | 0 mm | 0.45 m/s, 0° | 0 W/m² | - |
| 1778036160 | 17.78° C | 79% | 1009.9 hPa | 0 mm | 1.79 m/s, 290° | 0 W/m² | - |
| 1778035856 | 17.78° C | 79% | 1009.7 hPa | 0 mm | 0.45 m/s, 294° | 0 W/m² | - |
| 1778035553 | 17.78° C | 79% | 1009.7 hPa | 0 mm | 0.89 m/s, 346° | 0 W/m² | - |
| 1778035250 | 17.78° C | 79% | 1009.8 hPa | 0 mm | 0.45 m/s, 236° | 0 W/m² | - |
| 1778034945 | 18.33° C | 79% | 1009.4 hPa | 0 mm | 0.45 m/s, 304° | 0 W/m² | - |
| 1778034643 | 18.33° C | 79% | 1009.3 hPa | 0 mm | 0.89 m/s, 349° | 0 W/m² | - |
| 1778034341 | 18.33° C | 79% | 1009.3 hPa | 0 mm | 0.45 m/s, 19° | 0 W/m² | - |
| 1778034038 | 18.33° C | 79% | 1009.2 hPa | 0 mm | 0.89 m/s, 309° | 0 W/m² | - |
| 1778033735 | 18.33° C | 78% | 1008.8 hPa | 0 mm | 0.89 m/s, 352° | 0 W/m² | - |
* Rain latest hour (hover to see other rain measurements)
** Current wind speed in m/s (hover to see current wind gust speed)